Погода в Кунашаке

Россия / Челябинская область     55°41′59″N   61°33′00″E
темп.,
°C
ветер,
м/с
пор.,
м/с
влажн.,
%
обл.,
%
осадки,
мм/ч
давл.,
гПа
погр.,
м
24 мая, вт
вт2423:00+7ю399797 0.4 1003276
02:00+7ююз239788 0.0 100449
05:00+6юз239769 0.0 100654
08:00+11ююз358460 0.0 1006358
11:00+15ю477199 0.0 1007964
14:00+15юз238299 0.9 1008445
17:00+16св1183100 2.7 1008355
20:00+13всв3495100 1.4 100995
25 мая, ср
ср2523:00+12в3596100 1.6 100994
02:00+13в51293100 0.3 1007261
05:00+13ююв41188100 0.3 1007206
08:00+15ююв41078100 0.0 1007328
11:00+19ююв61060100 0.0 1006506
14:00+22ю61255100 0.0 10062027
17:00+21ююв61457100 0.0 1005845
20:00+18ююв7146829 0.2 1005425
26 мая, чт
чт2623:00+9зсз5119099 1.4 1009368
02:00+8з3793100 0.0 1010221
05:00+8зсз2692100 0.8 1010271
08:00+8сз3696100 6.9 1010351
11:00+8сз5989100 16.2 1010745
14:00+9с3689100 3.8 1011353
17:00+11с3876100 3.8 1011691
20:00+11сз51074100 0.0 1010300
27 мая, пт
пт2723:00+7зсз51178100 0.0 1013240
02:00+5зсз410860 0.0 1014229
05:00+4з38880 0.0 1015171
08:00+9з4873100 0.0 1015475
11:00+13з465819 0.0 10151543
14:00+16юз455096 0.0 10141773
17:00+16ююз5555100 0.0 10131502
20:00+13ююв347499 0.0 101362
28 мая, сб
сб2823:00+10ю478017 0.0 1013108
02:00+8ю358739 0.0 101378
05:00+8ююз348973 0.0 101388
08:00+13ююз46735 0.0 1013320
11:00+16ююз686699 0.1 10121063
14:00+17ююз786541 0.1 10131413
17:00+17ююз456212 0.4 10131288
20:00+15зюз347721 0.3 101475